Time,TemperatureF,DewpointF,PressureIn,WindDirection,WindDirectionDegrees,WindSpeedMPH,WindSpeedGustMPH,Humidity,HourlyPrecipIn,Conditions,Clouds,dailyrainin,SolarRadiationWatts/m^2,SoftwareType,DateUTC
2013-04-25 00:01:00,46.0,17.0,-100.00,West,262,17.0,28.0,31,0.00,,,0.00,0.000000,,2013-04-25 06:01:00,
2013-04-25 00:11:00,46.0,17.0,-100.00,West,262,17.0,28.0,31,0.00,,,0.00,0.000000,,2013-04-25 06:11:00,
2013-04-25 00:42:00,46.0,15.0,-100.00,West,264,17.0,31.0,28,0.00,,,0.00,0.000000,,2013-04-25 06:42:00,
2013-04-25 00:52:00,46.0,15.0,-100.00,West,264,17.0,31.0,28,0.00,,,0.00,0.000000,,2013-04-25 06:52:00,
2013-04-25 01:01:00,46.0,15.0,-100.00,West,264,17.0,31.0,28,0.00,,,0.00,0.000000,,2013-04-25 07:01:00,
2013-04-25 01:11:00,46.0,15.0,-100.00,West,264,17.0,31.0,28,0.00,,,0.00,0.000000,,2013-04-25 07:11:00,
2013-04-25 01:21:00,46.0,15.0,-100.00,West,264,17.0,31.0,28,0.00,,,0.00,0.000000,,2013-04-25 07:21:00,
2013-04-25 01:42:00,44.0,15.0,-100.00,West,274,12.0,23.0,31,0.00,,,0.00,0.000000,,2013-04-25 07:42:00,
2013-04-25 01:52:00,44.0,15.0,-100.00,West,274,12.0,23.0,31,0.00,,,0.00,0.000000,,2013-04-25 07:52:00,
2013-04-25 02:01:00,44.0,15.0,-100.00,West,274,12.0,23.0,31,0.00,,,0.00,0.000000,,2013-04-25 08:01:00,
2013-04-25 02:11:00,44.0,15.0,-100.00,West,274,12.0,23.0,31,0.00,,,0.00,0.000000,,2013-04-25 08:11:00,
2013-04-25 02:21:00,44.0,15.0,-100.00,West,274,12.0,23.0,31,0.00,,,0.00,0.000000,,2013-04-25 08:21:00,
2013-04-25 02:42:00,46.0,16.0,-100.00,West,261,17.0,24.0,29,0.00,,,0.00,0.000000,,2013-04-25 08:42:00,
2013-04-25 02:52:00,46.0,16.0,-100.00,West,261,17.0,24.0,29,0.00,,,0.00,0.000000,,2013-04-25 08:52:00,
2013-04-25 03:01:00,46.0,16.0,-100.00,West,261,17.0,24.0,29,0.00,,,0.00,0.000000,,2013-04-25 09:01:00,
2013-04-25 03:11:00,46.0,16.0,-100.00,West,261,17.0,24.0,29,0.00,,,0.00,0.000000,,2013-04-25 09:11:00,
2013-04-25 03:21:00,46.0,16.0,-100.00,West,261,17.0,24.0,29,0.00,,,0.00,0.000000,,2013-04-25 09:21:00,
2013-04-25 03:22:00,44.0,16.0,-100.00,West,264,16.0,27.0,32,0.00,,,0.00,0.000000,,2013-04-25 09:22:00,
2013-04-25 03:42:00,44.0,16.0,-100.00,West,264,16.0,27.0,32,0.00,,,0.00,0.000000,,2013-04-25 09:42:00,
2013-04-25 03:52:00,44.0,16.0,-100.00,West,264,16.0,27.0,32,0.00,,,0.00,0.000000,,2013-04-25 09:52:00,
2013-04-25 04:02:00,44.0,16.0,-100.00,West,264,16.0,27.0,32,0.00,,,0.00,0.000000,,2013-04-25 10:02:00,
2013-04-25 04:12:00,44.0,16.0,-100.00,West,264,16.0,27.0,32,0.00,,,0.00,0.000000,,2013-04-25 10:12:00,
2013-04-25 04:42:00,45.0,15.0,-100.00,WSW,247,10.0,21.0,30,0.00,,,0.00,0.000000,,2013-04-25 10:42:00,
2013-04-25 04:53:00,45.0,15.0,-100.00,WSW,247,10.0,21.0,30,0.00,,,0.00,0.000000,,2013-04-25 10:53:00,
2013-04-25 05:02:00,45.0,15.0,-100.00,WSW,247,10.0,21.0,30,0.00,,,0.00,0.000000,,2013-04-25 11:02:00,
2013-04-25 05:12:00,45.0,15.0,-100.00,WSW,247,10.0,21.0,30,0.00,,,0.00,0.000000,,2013-04-25 11:12:00,
2013-04-25 05:21:00,45.0,15.0,-100.00,WSW,247,10.0,21.0,30,0.00,,,0.00,0.000000,,2013-04-25 11:21:00,
2013-04-25 05:42:00,44.0,16.0,-100.00,West,267,14.0,23.0,32,0.00,,,0.00,0.000000,,2013-04-25 11:42:00,
2013-04-25 05:52:00,44.0,16.0,-100.00,West,267,14.0,23.0,32,0.00,,,0.00,0.000000,,2013-04-25 11:52:00,
2013-04-25 06:01:00,44.0,16.0,-100.00,West,267,14.0,23.0,32,0.00,,,0.00,0.000000,,2013-04-25 12:01:00,
2013-04-25 06:12:00,44.0,16.0,-100.00,West,267,14.0,23.0,32,0.00,,,0.00,0.000000,,2013-04-25 12:12:00,
2013-04-25 06:21:00,44.0,16.0,-100.00,West,267,14.0,23.0,32,0.00,,,0.00,0.000000,,2013-04-25 12:21:00,
2013-04-25 06:42:00,41.0,15.0,-100.00,WSW,252,10.0,18.0,34,0.00,,,0.00,0.000000,,2013-04-25 12:42:00,
2013-04-25 06:52:00,41.0,15.0,-100.00,WSW,252,10.0,18.0,34,0.00,,,0.00,0.000000,,2013-04-25 12:52:00,
2013-04-25 07:02:00,41.0,15.0,-100.00,WSW,252,10.0,18.0,34,0.00,,,0.00,0.000000,,2013-04-25 13:02:00,
2013-04-25 07:11:00,41.0,15.0,-100.00,WSW,252,10.0,18.0,34,0.00,,,0.00,0.000000,,2013-04-25 13:11:00,
2013-04-25 07:21:00,41.0,15.0,-100.00,WSW,252,10.0,18.0,34,0.00,,,0.00,0.000000,,2013-04-25 13:21:00,
2013-04-25 07:42:00,47.0,16.0,-100.00,West,268,15.0,20.0,29,0.00,,,-99.99,66.000000,,2013-04-25 13:42:00,
2013-04-25 07:52:00,47.0,16.0,-100.00,West,268,15.0,20.0,29,0.00,,,-99.99,66.000000,,2013-04-25 13:52:00,
2013-04-25 08:42:00,48.0,15.0,-100.00,West,269,14.0,21.0,26,0.00,,,-99.99,228.000000,,2013-04-25 14:42:00,
2013-04-25 08:52:00,48.0,15.0,-100.00,West,269,14.0,21.0,26,0.00,,,-99.99,228.000000,,2013-04-25 14:52:00,
2013-04-25 09:02:00,48.0,15.0,-100.00,West,269,14.0,21.0,26,0.00,,,-99.99,228.000000,,2013-04-25 15:02:00,
2013-04-25 09:11:00,48.0,15.0,-100.00,West,269,14.0,21.0,26,0.00,,,-99.99,228.000000,,2013-04-25 15:11:00,
2013-04-25 09:21:00,48.0,15.0,-100.00,West,269,14.0,21.0,26,0.00,,,-99.99,228.000000,,2013-04-25 15:21:00,
2013-04-25 09:22:00,54.0,16.0,-100.00,West,272,17.0,23.0,22,0.00,,,0.00,453.000000,,2013-04-25 15:22:00,
2013-04-25 09:42:00,54.0,16.0,-100.00,West,272,17.0,23.0,22,0.00,,,0.00,453.000000,,2013-04-25 15:42:00,
2013-04-25 09:53:00,54.0,16.0,-100.00,West,272,17.0,23.0,22,0.00,,,0.00,453.000000,,2013-04-25 15:53:00,
2013-04-25 10:02:00,54.0,16.0,-100.00,West,272,17.0,23.0,22,0.00,,,0.00,453.000000,,2013-04-25 16:02:00,
2013-04-25 10:13:00,54.0,16.0,-100.00,West,272,17.0,23.0,22,0.00,,,0.00,453.000000,,2013-04-25 16:13:00,
2013-04-25 10:22:00,54.0,16.0,-100.00,West,268,12.0,24.0,22,0.00,,,-99.99,598.000000,,2013-04-25 16:22:00,
2013-04-25 10:43:00,54.0,16.0,-100.00,West,268,12.0,24.0,22,0.00,,,-99.99,598.000000,,2013-04-25 16:43:00,
2013-04-25 10:52:00,54.0,16.0,-100.00,West,268,12.0,24.0,22,0.00,,,-99.99,598.000000,,2013-04-25 16:52:00,
2013-04-25 11:02:00,54.0,16.0,-100.00,West,268,12.0,24.0,22,0.00,,,-99.99,598.000000,,2013-04-25 17:02:00,
2013-04-25 11:11:00,54.0,16.0,-100.00,West,268,12.0,24.0,22,0.00,,,-99.99,598.000000,,2013-04-25 17:11:00,
2013-04-25 11:42:00,59.0,17.0,-100.00,West,259,10.0,18.0,19,0.00,,,0.00,841.000000,,2013-04-25 17:42:00,
2013-04-25 11:53:00,59.0,17.0,-100.00,West,259,10.0,18.0,19,0.00,,,0.00,841.000000,,2013-04-25 17:53:00,
2013-04-25 12:01:00,59.0,17.0,-100.00,West,259,10.0,18.0,19,0.00,,,0.00,841.000000,,2013-04-25 18:01:00,
2013-04-25 12:11:00,59.0,17.0,-100.00,West,259,10.0,18.0,19,0.00,,,0.00,841.000000,,2013-04-25 18:11:00,
2013-04-25 12:21:00,59.0,17.0,-100.00,West,259,10.0,18.0,19,0.00,,,0.00,841.000000,,2013-04-25 18:21:00,
2013-04-25 12:43:00,60.0,18.0,-100.00,WSW,258,8.0,18.0,19,0.00,,,0.00,1189.000000,,2013-04-25 18:43:00,
2013-04-25 12:53:00,60.0,18.0,-100.00,WSW,258,8.0,18.0,19,0.00,,,0.00,1189.000000,,2013-04-25 18:53:00,
2013-04-25 13:01:00,60.0,18.0,-100.00,WSW,258,8.0,18.0,19,0.00,,,0.00,1189.000000,,2013-04-25 19:01:00,
2013-04-25 13:12:00,60.0,18.0,-100.00,WSW,258,8.0,18.0,19,0.00,,,0.00,1189.000000,,2013-04-25 19:12:00,
2013-04-25 13:21:00,60.0,18.0,-100.00,WSW,258,8.0,18.0,19,0.00,,,0.00,1189.000000,,2013-04-25 19:21:00,
2013-04-25 13:42:00,59.0,16.0,-100.00,WNW,293,11.0,19.0,18,0.00,,,0.00,1042.000000,,2013-04-25 19:42:00,
2013-04-25 13:52:00,59.0,16.0,-100.00,WNW,293,11.0,19.0,18,0.00,,,0.00,1042.000000,,2013-04-25 19:52:00,
2013-04-25 14:01:00,59.0,16.0,-100.00,WNW,293,11.0,19.0,18,0.00,,,0.00,1042.000000,,2013-04-25 20:01:00,
2013-04-25 14:11:00,59.0,16.0,-100.00,WNW,293,11.0,19.0,18,0.00,,,0.00,1042.000000,,2013-04-25 20:11:00,
2013-04-25 14:21:00,59.0,16.0,-100.00,WNW,293,11.0,19.0,18,0.00,,,0.00,1042.000000,,2013-04-25 20:21:00,
2013-04-25 14:43:00,62.0,18.0,-100.00,NNW,331,16.0,26.0,18,0.00,,,0.00,953.000000,,2013-04-25 20:43:00,
2013-04-25 14:52:00,62.0,18.0,-100.00,NNW,331,16.0,26.0,18,0.00,,,0.00,953.000000,,2013-04-25 20:52:00,
2013-04-25 15:01:00,62.0,18.0,-100.00,NNW,331,16.0,26.0,18,0.00,,,0.00,953.000000,,2013-04-25 21:01:00,
2013-04-25 15:11:00,62.0,18.0,-100.00,NNW,331,16.0,26.0,18,0.00,,,0.00,953.000000,,2013-04-25 21:11:00,
2013-04-25 15:21:00,62.0,18.0,-100.00,NNW,331,16.0,26.0,18,0.00,,,0.00,953.000000,,2013-04-25 21:21:00,
2013-04-25 15:22:00,63.0,18.0,-100.00,NW,323,14.0,26.0,17,0.00,,,0.00,978.000000,,2013-04-25 21:22:00,
2013-04-25 15:42:00,63.0,18.0,-100.00,NW,323,14.0,26.0,17,0.00,,,0.00,978.000000,,2013-04-25 21:42:00,
2013-04-25 15:53:00,63.0,18.0,-100.00,NW,323,14.0,26.0,17,0.00,,,0.00,978.000000,,2013-04-25 21:53:00,
2013-04-25 16:02:00,63.0,18.0,-100.00,NW,323,14.0,26.0,17,0.00,,,0.00,978.000000,,2013-04-25 22:02:00,
2013-04-25 16:12:00,63.0,18.0,-100.00,NW,323,14.0,26.0,17,0.00,,,0.00,978.000000,,2013-04-25 22:12:00,
2013-04-25 16:42:00,65.0,19.0,-100.00,WNW,301,16.0,30.0,17,0.00,,,0.00,1031.000000,,2013-04-25 22:42:00,
2013-04-25 16:53:00,65.0,19.0,-100.00,WNW,301,16.0,30.0,17,0.00,,,0.00,1031.000000,,2013-04-25 22:53:00,
2013-04-25 17:02:00,65.0,19.0,-100.00,WNW,301,16.0,30.0,17,0.00,,,0.00,1031.000000,,2013-04-25 23:02:00,
2013-04-25 17:12:00,65.0,19.0,-100.00,WNW,301,16.0,30.0,17,0.00,,,0.00,1031.000000,,2013-04-25 23:12:00,
2013-04-25 17:21:00,65.0,19.0,-100.00,WNW,301,16.0,30.0,17,0.00,,,0.00,1031.000000,,2013-04-25 23:21:00,
2013-04-25 17:42:00,62.0,18.0,-100.00,NW,319,15.0,22.0,18,0.00,,,0.00,766.000000,,2013-04-25 23:42:00,
2013-04-25 17:52:00,62.0,18.0,-100.00,NW,319,15.0,22.0,18,0.00,,,0.00,766.000000,,2013-04-25 23:52:00,
2013-04-25 18:01:00,62.0,18.0,-100.00,NW,319,15.0,22.0,18,0.00,,,0.00,766.000000,,2013-04-26 00:01:00,
2013-04-25 18:11:00,62.0,18.0,-100.00,NW,319,15.0,22.0,18,0.00,,,0.00,766.000000,,2013-04-26 00:11:00,
2013-04-25 18:21:00,62.0,18.0,-100.00,NW,319,15.0,22.0,18,0.00,,,0.00,766.000000,,2013-04-26 00:21:00,
2013-04-25 18:42:00,64.0,20.0,-100.00,WNW,303,12.0,28.0,18,0.00,,,0.00,568.000000,,2013-04-26 00:42:00,
2013-04-25 18:52:00,64.0,20.0,-100.00,WNW,303,12.0,28.0,18,0.00,,,0.00,568.000000,,2013-04-26 00:52:00,
2013-04-25 19:01:00,64.0,20.0,-100.00,WNW,303,12.0,28.0,18,0.00,,,0.00,568.000000,,2013-04-26 01:01:00,
2013-04-25 19:11:00,64.0,20.0,-100.00,WNW,303,12.0,28.0,18,0.00,,,0.00,568.000000,,2013-04-26 01:11:00,
2013-04-25 19:21:00,64.0,20.0,-100.00,WNW,303,12.0,28.0,18,0.00,,,0.00,568.000000,,2013-04-26 01:21:00,
2013-04-25 19:42:00,60.0,20.0,-100.00,West,277,8.0,20.0,21,0.00,,,0.00,285.000000,,2013-04-26 01:42:00,
2013-04-25 19:52:00,60.0,20.0,-100.00,West,277,8.0,20.0,21,0.00,,,0.00,285.000000,,2013-04-26 01:52:00,
2013-04-25 20:01:00,60.0,20.0,-100.00,West,277,8.0,20.0,21,0.00,,,0.00,285.000000,,2013-04-26 02:01:00,
2013-04-25 20:11:00,60.0,20.0,-100.00,West,277,8.0,20.0,21,0.00,,,0.00,285.000000,,2013-04-26 02:11:00,
2013-04-25 20:21:00,60.0,20.0,-100.00,West,277,8.0,20.0,21,0.00,,,0.00,285.000000,,2013-04-26 02:21:00,
2013-04-25 20:42:00,53.0,21.0,-100.00,WNW,291,9.0,17.0,28,0.00,,,0.00,64.000000,,2013-04-26 02:42:00,
2013-04-25 20:52:00,53.0,21.0,-100.00,WNW,291,9.0,17.0,28,0.00,,,0.00,64.000000,,2013-04-26 02:52:00,
2013-04-25 21:11:00,53.0,21.0,-100.00,WNW,291,9.0,17.0,28,0.00,,,0.00,64.000000,,2013-04-26 03:11:00,
2013-04-25 21:21:00,53.0,21.0,-100.00,WNW,291,9.0,17.0,28,0.00,,,0.00,64.000000,,2013-04-26 03:21:00,
2013-04-25 21:43:00,50.0,24.0,-100.00,West,264,9.0,11.0,36,0.00,,,0.00,0.000000,,2013-04-26 03:43:00,
2013-04-25 21:53:00,50.0,24.0,-100.00,West,264,9.0,11.0,36,0.00,,,0.00,0.000000,,2013-04-26 03:53:00,
2013-04-25 22:02:00,50.0,24.0,-100.00,West,264,9.0,11.0,36,0.00,,,0.00,0.000000,,2013-04-26 04:02:00,
2013-04-25 22:22:00,51.0,24.0,-100.00,NNW,340,6.0,13.0,34,0.00,,,0.00,0.000000,,2013-04-26 04:22:00,
2013-04-25 22:43:00,51.0,24.0,-100.00,NNW,340,6.0,13.0,34,0.00,,,0.00,0.000000,,2013-04-26 04:43:00,
2013-04-25 22:53:00,51.0,24.0,-100.00,NNW,340,6.0,13.0,34,0.00,,,0.00,0.000000,,2013-04-26 04:53:00,
2013-04-25 23:02:00,51.0,24.0,-100.00,NNW,340,6.0,13.0,34,0.00,,,0.00,0.000000,,2013-04-26 05:02:00,
2013-04-25 23:12:00,51.0,24.0,-100.00,NNW,340,6.0,13.0,34,0.00,,,0.00,0.000000,,2013-04-26 05:12:00,
2013-04-25 23:42:00,51.0,24.0,-100.00,West,278,8.0,15.0,34,0.00,,,0.00,0.000000,,2013-04-26 05:42:00,
2013-04-25 23:52:00,51.0,24.0,-100.00,West,278,8.0,15.0,34,0.00,,,0.00,0.000000,,2013-04-26 05:52:00,